Vorticity
11 10 13 20 25 -4 4 3 -9 7 24 5 20 1 5 2 5 1 5 14 17 16 13 12 15 23 17 7 8 10 14 17 16 13 9 8 11 11 8 6 6 7 9 13
6 9 13 27 35 11 -5 2 2 -0 -18 -7 -5 -5 -3 1 4 8 3 3 16 11 14 14 10 8 8 8 9 14 16 17 15 14 13 13 10 9 11 13 14 14 13 11
10 11 6 8 16 28 2 -6 4 -1 14 11 4 7 10 7 7 7 13 12 10 17 11 12 12 13 13 12 12 12 11 11 11 11 11 11 13 13 13 11 10 9 9 8
11 10 8 8 14 16 13 10 22 8 8 6 8 8 11 9 11 8 6 11 13 16 13 10 10 9 9 9 9 9 9 9 10 11 11 10 10 10 9 8 7 7 7 8
10 19 11 12 13 12 17 16 17 19 18 17 16 16 18 19 13 11 9 8 10 14 12 9 8 7 8 9 9 10 11 10 10 9 9 7 6 6 6 6 8 8 7 7
10 11 8 9 9 14 13 5 6 5 9 12 14 15 17 14 17 17 5 5 6 12 12 9 7 7 7 8 12 14 11 10 9 8 7 7 7 7 6 6 6 6 5 8
1 10 10 11 8 14 12 7 6 4 4 9 14 16 18 11 8 5 23 12 8 6 11 14 9 8 7 12 11 6 5 5 7 6 7 8 8 9 10 7 9 11 11 12
20 7 14 10 15 7 11 8 5 6 11 11 12 16 12 13 17 20 17 18 14 7 10 10 9 7 7 11 6 3 4 4 0 5 10 8 8 9 8 14 17 14 12 13
4 17 3 5 7 6 7 7 8 6 9 9 9 14 11 9 9 14 17 17 17 12 10 9 7 8 10 6 7 7 5 5 7 10 7 7 9 6 7 10 12 11 14 14
10 13 6 11 10 10 10 9 7 6 8 11 12 9 9 14 12 10 8 13 15 16 12 10 9 8 5 2 1 4 7 7 10 8 7 15 14 21 10 11 10 9 9 14
9 8 11 3 5 6 5 6 10 12 11 3 9 11 14 6 10 16 9 9 10 8 9 9 8 7 6 6 6 9 7 9 6 8 7 8 11 13 12 11 10 9 11 11
1 9 7 9 2 5 9 17 15 11 8 7 5 7 8 6 6 8 10 10 11 11 18 20 17 15 12 7 13 19 10 15 11 9 10 9 12 10 11 13 13 12 10 14
3 -0 5 1 4 14 7 7 12 14 9 8 9 6 4 7 4 4 5 8 8 9 9 8 8 9 10 9 9 8 8 10 12 9 11 10 5 5 7 7 7 16 12 13
16 10 13 9 8 9 6 1 3 6 9 10 10 11 6 23 5 6 8 8 8 8 8 7 7 8 7 7 6 7 9 11 14 14 7 7 5 11 4 10 9 13 13 16
16 3 -1 0 7 -8 7 6 2 2 -0 8 9 8 7 6 6 6 6 6 7 7 12 13 12 12 13 12 11 10 9 11 9 10 9 10 17 8 15 8 6 8 12 15
9 8 12 15 23 25 18 10 9 11 16 10 7 15 4 5 3 4 8 14 18 20 18 16 17 18 18 18 18 17 17 18 15 11 7 9 20 -3 11 12 14 12 9 11
20 15 12 10 9 4 22 14 19 12 14 8 2 12 4 5 1 9 23 20 13 13 12 11 13 18 21 24 21 20 21 15 18 12 10 12 12 24 -7 1 8 5 3 3
10 13 10 21 31 12 23 16 23 13 8 13 26 -1 2 0 8 21 16 12 11 9 9 8 8 8 8 12 20 21 18 14 13 13 15 13 11 10 11 6 7 11 14 13
14 16 13 15 17 17 25 11 0 6 26 12 19 4 4 13 10 17 11 8 7 7 7 7 8 8 8 9 9 8 12 21 17 14 13 12 11 10 9 8 9 11 12 8
11 13 15 15 16 15 12 26 20 11 7 16 12 10 12 19 9 16 8 7 9 10 12 12 13 13 13 13 14 13 11 10 10 14 15 17 15 13 12 10 9 9 8 11
10 8 11 16 17 16 14 14 15 12 15 21 17 15 23 29 30 16 13 3 9 14 16 16 15 15 14 13 12 13 13 14 14 14 13 13 13 14 15 13 14 15 13 13
10 11 6 7 12 14 16 16 21 22 19 18 14 11 9 12 17 17 7 5 10 11 10 10 10 12 12 12 11 11 11 11 12 12 12 13 13 13 13 13 14 14 13 12
13 9 12 7 5 7 4 4 5 8 13 12 16 15 9 9 9 12 15 15 13 12 12 13 13 13 12 11 11 11 11 11 10 11 11 12 12 13 15 15 14 14 14 14
14 16 15 10 10 7 7 5 7 6 5 14 14 8 6 5 8 10 10 10 10 10 10 10 10 10 10 10 11 11 11 11 11 10 10 9 9 9 9 9 10 11 13 14
19 20 20 20 17 12 11 7 5 3 3 4 7 6 6 10 11 13 12 10 9 9 9 8 7 7 7 7 7 7 8 8 9 9 10 10 10 10 10 9 10 10 9 8
18 19 20 19 21 23 20 15 13 12 12 13 10 8 6 10 13 12 10 9 9 8 8 10 10 10 9 9 10 12 13 12 11 10 10 10 11 11 11 11 11 11 11 11
11 13 17 20 21 19 20 23 25 21 18 17 17 16 17 13 13 13 13 12 12 12 13 15 17 20 22 19 15 13 11 11 11 11 11 11 11 12 13 13 14 14 14 14
Height
3036 3035 3034 3035 3037 3041 3044 3048 3050 3051 3054 3055 3055 3055 3054 3056 3057 3059 3061 3062 3063 3066 3069 3069 3071 3074 3077 3079 3081 3083 3086 3088 3090 3092 3093 3095 3096 3096 3096 3096 3097 3097 3096 3094
3037 3037 3035 3034 3035 3040 3044 3047 3048 3050 3052 3053 3054 3054 3054 3054 3055 3056 3057 3059 3061 3063 3064 3066 3068 3071 3072 3074 3076 3078 3080 3081 3083 3085 3088 3089 3089 3089 3089 3090 3089 3088 3087 3086
3037 3036 3036 3038 3038 3039 3042 3044 3046 3047 3049 3050 3051 3051 3051 3052 3052 3053 3053 3055 3056 3058 3061 3063 3065 3067 3068 3070 3072 3074 3076 3077 3079 3081 3082 3082 3082 3082 3082 3082 3081 3081 3080 3079
3038 3037 3039 3038 3038 3040 3042 3043 3044 3044 3045 3045 3046 3048 3047 3048 3050 3050 3051 3051 3052 3053 3056 3059 3061 3063 3065 3066 3068 3070 3071 3072 3074 3074 3075 3075 3076 3076 3076 3076 3075 3074 3072 3070
3039 3038 3039 3037 3038 3039 3039 3042 3042 3042 3043 3042 3042 3041 3042 3043 3045 3046 3047 3048 3049 3050 3052 3054 3057 3059 3060 3062 3063 3065 3066 3067 3068 3069 3070 3070 3070 3070 3069 3068 3067 3066 3064 3061
3040 3038 3037 3038 3037 3037 3038 3041 3041 3041 3041 3040 3039 3039 3039 3039 3040 3041 3042 3044 3046 3048 3049 3051 3053 3055 3057 3058 3059 3061 3062 3063 3064 3065 3065 3065 3064 3063 3062 3060 3058 3056 3054 3051
3036 3038 3038 3037 3037 3037 3039 3044 3039 3039 3039 3038 3037 3037 3036 3036 3037 3037 3038 3039 3042 3044 3046 3048 3050 3052 3054 3055 3056 3057 3058 3059 3060 3060 3060 3059 3058 3055 3053 3052 3050 3047 3045 3042
3038 3037 3039 3038 3038 3038 3039 3037 3038 3038 3037 3036 3035 3034 3034 3034 3033 3034 3035 3036 3039 3041 3043 3044 3046 3048 3049 3051 3052 3052 3053 3054 3054 3053 3052 3051 3050 3048 3045 3043 3041 3039 3036 3033
3038 3038 3037 3036 3037 3037 3037 3037 3037 3037 3036 3035 3034 3033 3033 3033 3033 3033 3033 3035 3036 3037 3039 3040 3042 3044 3045 3046 3047 3048 3048 3048 3048 3047 3046 3044 3042 3040 3038 3035 3033 3031 3028 3025
3038 3036 3035 3036 3035 3036 3036 3036 3035 3035 3034 3034 3033 3032 3032 3031 3032 3032 3033 3033 3033 3034 3035 3037 3038 3039 3040 3041 3041 3042 3042 3042 3041 3040 3038 3036 3034 3031 3030 3028 3026 3024 3021 3019
3033 3032 3033 3033 3033 3033 3034 3034 3033 3033 3032 3032 3032 3031 3031 3030 3030 3030 3031 3030 3031 3031 3032 3033 3034 3035 3035 3035 3035 3035 3035 3034 3034 3032 3031 3029 3027 3024 3023 3021 3019 3017 3015 3013
3030 3031 3031 3030 3031 3031 3031 3031 3030 3030 3030 3030 3030 3029 3029 3028 3029 3029 3028 3028 3027 3027 3027 3028 3028 3028 3028 3028 3027 3027 3027 3026 3026 3025 3024 3022 3020 3018 3016 3014 3012 3010 3008 3006
3029 3028 3027 3028 3028 3028 3028 3028 3028 3028 3027 3027 3027 3026 3026 3026 3025 3025 3024 3024 3023 3023 3023 3022 3022 3021 3021 3020 3019 3019 3018 3017 3017 3017 3016 3014 3013 3012 3010 3008 3006 3004 3001 2999
3025 3024 3023 3023 3023 3024 3024 3024 3024 3024 3024 3023 3023 3022 3021 3020 3021 3021 3020 3019 3018 3017 3017 3016 3015 3014 3013 3012 3011 3010 3010 3009 3008 3008 3008 3007 3006 3005 3003 3002 3000 2997 2995 2993
3020 3019 3019 3019 3018 3019 3019 3019 3019 3019 3019 3019 3018 3017 3017 3016 3016 3016 3015 3014 3012 3011 3009 3008 3006 3005 3004 3003 3002 3002 3001 3000 3000 3000 3000 2999 2998 2998 2996 2995 2994 2992 2989 2987
3016 3014 3013 3012 3011 3011 3012 3012 3013 3013 3012 3012 3013 3012 3012 3011 3011 3010 3009 3007 3005 3003 3001 3000 2998 2996 2995 2993 2992 2991 2991 2990 2990 2992 2992 2991 2991 2991 2989 2988 2987 2986 2984 2982
3012 3010 3008 3006 3005 3004 3004 3004 3004 3005 3006 3006 3006 3006 3006 3006 3005 3003 3001 2999 2998 2997 2996 2994 2992 2989 2987 2985 2984 2983 2982 2982 2981 2983 2983 2982 2982 2982 2982 2981 2980 2979 2978 2977
3007 3005 3003 3001 2998 2997 2997 2998 2998 2999 3000 2999 2999 2999 2999 2999 2998 2996 2995 2994 2993 2992 2990 2989 2987 2985 2982 2980 2978 2976 2976 2975 2975 2975 2974 2975 2974 2974 2974 2973 2973 2971 2971 2970
3002 3000 2998 2996 2994 2993 2993 2993 2993 2994 2993 2994 2994 2993 2993 2992 2992 2991 2990 2989 2987 2986 2985 2983 2981 2980 2978 2976 2974 2972 2971 2969 2968 2968 2967 2967 2967 2966 2966 2965 2964 2963 2963 2962
2998 2996 2994 2991 2990 2989 2989 2989 2989 2988 2987 2987 2987 2986 2986 2985 2985 2984 2984 2983 2982 2981 2979 2977 2975 2973 2971 2970 2968 2967 2965 2964 2963 2961 2960 2960 2959 2958 2957 2956 2955 2954 2953 2953
2995 2993 2991 2989 2987 2986 2985 2984 2984 2983 2982 2981 2980 2980 2980 2979 2978 2977 2976 2977 2976 2974 2973 2971 2969 2967 2965 2964 2962 2960 2959 2958 2957 2955 2954 2953 2951 2950 2949 2947 2946 2945 2944 2943
2991 2989 2988 2986 2985 2984 2983 2981 2981 2979 2978 2977 2976 2976 2975 2975 2974 2973 2973 2972 2971 2969 2967 2965 2964 2962 2960 2958 2956 2955 2954 2952 2951 2949 2947 2946 2944 2942 2941 2939 2938 2936 2935 2933
2986 2985 2984 2983 2982 2981 2980 2979 2979 2978 2977 2975 2974 2972 2971 2971 2971 2970 2968 2967 2965 2963 2961 2959 2958 2956 2954 2952 2950 2949 2947 2945 2944 2942 2940 2938 2937 2935 2933 2931 2929 2927 2926 2924
2980 2979 2978 2978 2977 2977 2976 2975 2975 2974 2973 2972 2971 2969 2967 2966 2966 2965 2963 2961 2960 2958 2956 2954 2952 2950 2948 2946 2944 2942 2941 2939 2937 2935 2933 2932 2929 2927 2925 2923 2921 2918 2916 2914
2975 2973 2972 2971 2971 2971 2970 2970 2970 2969 2968 2967 2966 2965 2964 2962 2961 2960 2958 2956 2954 2952 2950 2948 2946 2944 2942 2939 2937 2935 2933 2931 2929 2927 2925 2923 2920 2918 2916 2913 2911 2909 2907 2905
2971 2969 2967 2965 2965 2964 2964 2964 2964 2963 2962 2961 2960 2959 2958 2956 2955 2953 2952 2951 2949 2947 2944 2942 2939 2937 2935 2932 2930 2927 2925 2922 2920 2917 2915 2913 2910 2908 2906 2903 2901 2898 2896 2894
2969 2967 2965 2963 2961 2960 2959 2958 2958 2957 2956 2955 2954 2953 2952 2950 2949 2948 2946 2945 2943 2941 2938 2936 2933 2930 2927 2924 2922 2919 2916 2914 2911 2908 2906 2903 2900 2897 2894 2892 2889 2887 2884 2881